Погода в Сент-Франсуа

Гваделупа     16°19′34″N   61°25′41″W
темп.,
°C
ветер,
м/с
пор.,
м/с
влажн.,
%
обл.,
%
осадки,
мм/ч
давл.,
гПа
погр.,
м
1 марта, пн
пн123:00+23всв597312 0.1 1016656
02:00+23всв48756 0.1 1013522
05:00+22всв487914 0.2 1013479
08:00+24всв577131 0.5 10151020
11:00+26св68640 0.9 10161276
14:00+27всв79643 1.4 10131305
17:00+25св787212 0.8 10131048
20:00+23св698118 1.8 1014753
2 марта, вт
вт223:00+22св597825 0.3 1015645
02:00+22св488313 0.3 1013475
05:00+22св488129 0.1 1013403
08:00+24всв567223 0.1 10151053
11:00+26всв555936 0.0 10161265
14:00+27всв555818 0.1 10141282
17:00+25всв56689 0.2 1014984
20:00+23всв47806 0.6 1015555
3 марта, ср
ср323:00+23всв47815 0.6 1016478
02:00+23в378310 0.9 1015386
05:00+23в488136 0.6 1015454
08:00+25в587225 0.7 10171109
11:00+27вюв67615 0.1 10171362
14:00+27вюв57613 0.1 10161315
17:00+26вюв57660 0.0 10151269
20:00+24вюв47757 0.3 1016511
4 марта, чт
чт423:00+24вюв47820 0.3 1016414
02:00+24вюв58824 1.1 1016514
05:00+23вюв588419 0.5 1015468
08:00+25вюв587844 1.1 1017977
11:00+27юв687140 1.5 10171071
14:00+27юв676829 2.6 10151094
17:00+26вюв677126 0.3 1014927
20:00+25вюв587813 0.4 1015525
5 марта, пт
пт523:00+24вюв59800 0.1 1016563
02:00+24вюв58790 0.1 1014498
05:00+24вюв58787 0.2 1013487
08:00+26юв57713 0.3 10151030
11:00+28юв68650 0.1 10161202
14:00+27юв68694 0.3 10131023
17:00+26юв68749 0.3 1013928
20:00+24юв57787 0.3 1014639